De Queen, AR

12:23 PM CDT on May 23, 2017 (GMT -0500)
Helms Sevier County

Weather History for KDEQ - December, 2012

Change the Weather History Date:

Monday, December 10, 2012

  Actual Average Record
Temperature  
Mean Temperature 35 °F 43 °F  
Max Temperature 48 °F 56 °F 74 °F (1970)
Min Temperature 22 °F 31 °F 12 °F (1977)
Degree Days  
Heating Degree Days 30 22  
Month to date heating degree days 76 205  
Since 1 July heating degree days 633 731  
Cooling Degree Days 0 0  
Month to date cooling degree days 14 0  
Year to date cooling degree days 2185 1941  
Moisture  
Dew Point 20 °F    
Average Humidity 53    
Maximum Humidity 74    
Minimum Humidity 31    
Precipitation  
Precipitation 0.00 in 0.12 in 3.25 in (1971)
Month to date precipitation 0.01 1.21  
Year to date precipitation 24.70 45.84  
Snow  
Snow 0.00 in - - ()
Month to date snowfall 0.0  
Since 1 July snowfall 0.0  
Snow Depth 0.00 in    
Sea Level Pressure  
Sea Level Pressure 30.03 in    
Wind  
Wind Speed 8 mph (NNW)    
Max Wind Speed 17 mph    
Max Gust Speed 24 mph    
Visibility 10 miles    
Events      
T = Trace of Precipitation, MM = Missing Value Source: NWS Daily Summary

Daily Weather History Graph

Daily Weather History Graph

Search for Another Location

Airport or City:

Trip Planner

Search our weather history database for the weather conditions in past years. The results will help you decide how hot, cold, wet, or windy it might be!

Date:

Astronomy

Dec. 10, 2012 Rise Set
Actual Time 7:12 AM CST 5:08 PM CST
Civil Twilight 6:44 AM CST 5:36 PM CST
Nautical Twilight 6:13 AM CST 6:07 PM CST
Astronomical Twilight 5:43 AM CST 6:37 PM CST
Moon 4:02 AM CST (12/10) 2:54 PM CST (12/10)
Length of Visible Light 10h 51m
Length of Day
9h 56m
Waning Crescent, 10% of the Moon is Illuminated
Dec 10
Waning Crescent
Dec 13
New
Dec 19
First Quarter
Dec 28
Full
Jan 4
Last Quarter

Hourly Weather History & Observations

Time (CST) Temp. Windchill Dew Point Humidity Pressure Visibility Wind Dir Wind Speed Gust Speed Precip Events Conditions
12:15 AM 46.9 °F - 35.1 °F 63% 29.92 in 10.0 mi NNW 11.5 mph - N/A   Scattered Clouds
12:53 AM 46.0 °F 40.6 °F 32.0 °F 58% 29.91 in 10.0 mi North 11.5 mph 18.4 mph N/A   Clear
1:53 AM 43.0 °F 38.2 °F 28.9 °F 58% 29.90 in 10.0 mi NW 8.1 mph - N/A   Clear
2:53 AM 39.0 °F 31.4 °F 24.1 °F 55% 29.94 in 10.0 mi NW 12.7 mph 20.7 mph N/A   Scattered Clouds
3:53 AM 36.0 °F 28.0 °F 21.0 °F 55% 29.96 in 10.0 mi NW 11.5 mph - N/A   Scattered Clouds
4:53 AM 36.0 °F 27.1 °F 18.0 °F 48% 30.01 in 10.0 mi NW 13.8 mph - N/A   Overcast
5:53 AM 35.1 °F 27.9 °F 17.1 °F 48% 30.02 in 10.0 mi NW 9.2 mph - N/A   Overcast
6:53 AM 34.0 °F 28.0 °F 17.1 °F 50% 30.04 in 10.0 mi NNW 6.9 mph - N/A   Overcast
7:53 AM 33.1 °F 25.5 °F 21.0 °F 61% 30.05 in 10.0 mi NW 9.2 mph - N/A   Overcast
8:53 AM 33.1 °F 26.9 °F 21.0 °F 61% 30.07 in 10.0 mi NNW 6.9 mph 18.4 mph N/A   Overcast
9:53 AM 35.1 °F 25.5 °F 19.0 °F 52% 30.09 in 10.0 mi NW 15.0 mph 24.2 mph N/A   Clear
10:53 AM 37.9 °F 30.9 °F 19.9 °F 48% 30.07 in 10.0 mi NNW 10.4 mph 17.3 mph N/A   Clear
11:53 AM 39.9 °F 34.5 °F 19.9 °F 45% 30.06 in 10.0 mi NNW 8.1 mph 17.3 mph N/A   Clear
12:53 PM 43.0 °F 38.8 °F 19.9 °F 40% 30.04 in 10.0 mi Variable 6.9 mph - N/A   Clear
1:53 PM 44.1 °F 38.6 °F 19.0 °F 37% 30.02 in 10.0 mi NNW 10.4 mph - N/A   Clear
2:53 PM 45.0 °F 39.3 °F 16.0 °F 31% 30.01 in 10.0 mi NNW 11.5 mph - N/A   Clear
3:53 PM 45.0 °F 39.7 °F 16.0 °F 31% 30.02 in 10.0 mi North 10.4 mph - N/A   Clear
4:53 PM 41.0 °F 36.4 °F 16.0 °F 36% 30.04 in 10.0 mi NNW 6.9 mph - N/A   Clear
5:53 PM 37.9 °F 33.5 °F 16.0 °F 41% 30.05 in 10.0 mi NNW 5.8 mph - N/A   Clear
6:53 PM 36.0 °F 31.1 °F 15.1 °F 43% 30.06 in 10.0 mi North 5.8 mph - N/A   Clear
7:53 PM 33.1 °F 28.7 °F 15.1 °F 48% 30.09 in 10.0 mi NNW 4.6 mph - N/A   Clear
8:53 PM 30.9 °F 27.5 °F 15.1 °F 52% 30.10 in 10.0 mi NNW 3.5 mph - N/A   Clear
9:53 PM 26.1 °F - 16.0 °F 66% 30.11 in 10.0 mi Calm Calm - N/A   Clear
10:53 PM 24.1 °F - 18.0 °F 77% 30.12 in 10.0 mi Calm Calm - N/A   Clear
11:53 PM 21.9 °F - 16.0 °F 78% 30.12 in 10.0 mi Calm Calm - N/A   Clear